This is the latest recevied weather packets stored in our database for station/object K4DFD-13. If no packets are shown the sender has not sent any weather packets the latest 1 day(s).
| Time | Temp. | Humidity | Pressure | Rain* | Wind** | Luminosity | Snow |
|---|---|---|---|---|---|---|---|
| 1778032620 | 18.33° C | 52% | 1013.8 hPa | 0 mm | 0.89 m/s, 193° | - | - |
| 1778032319 | 18.89° C | 51% | 1013.8 hPa | 0 mm | 1.34 m/s, 220° | - | - |
| 1778032029 | 18.89° C | 51% | 1013.8 hPa | 0 mm | 0.89 m/s, 199° | - | - |
| 1778031718 | 18.89° C | 51% | 1013.8 hPa | 0 mm | 1.34 m/s, 210° | - | - |
| 1778031418 | 18.89° C | 51% | 1013.7 hPa | 0 mm | 1.34 m/s, 191° | - | - |
| 1778031118 | 18.89° C | 51% | 1013.7 hPa | 0 mm | 1.34 m/s, 193° | - | - |
| 1778030817 | 18.89° C | 50% | 1013.7 hPa | 0 mm | 1.79 m/s, 207° | - | - |
| 1778030521 | 18.89° C | 50% | 1013.9 hPa | 0 mm | 0.89 m/s, 212° | - | - |
| 1778030217 | 19.44° C | 50% | 1013.7 hPa | 0 mm | 0.45 m/s, 196° | - | - |
| 1778029916 | 18.89° C | 49% | 1013.8 hPa | 0 mm | 2.24 m/s, 203° | - | - |
| 1778029615 | 18.89° C | 50% | 1013.8 hPa | 0 mm | 0.45 m/s, 183° | - | - |
| 1778029315 | 18.89° C | 50% | 1013.8 hPa | 0 mm | 1.34 m/s, 208° | - | - |
| 1778029034 | 19.44° C | 50% | 1013.8 hPa | 0 mm | 0.89 m/s, 200° | - | - |
| 1778028714 | 19.44° C | 49% | 1013.7 hPa | 0 mm | 2.68 m/s, 217° | - | - |
| 1778028431 | 19.44° C | 49% | 1013.7 hPa | 0 mm | 1.79 m/s, 199° | - | - |
| 1778028113 | 19.44° C | 49% | 1013.6 hPa | 0 mm | 1.34 m/s, 215° | - | - |
| 1778027813 | 19.44° C | 48% | 1013.5 hPa | 0 mm | 1.79 m/s, 184° | - | - |
| 1778027513 | 20° C | 48% | 1013.5 hPa | 0 mm | 1.79 m/s, 198° | - | - |
| 1778027212 | 20° C | 48% | 1013.6 hPa | 0 mm | 1.79 m/s, 208° | - | - |
| 1778026912 | 20° C | 47% | 1013.5 hPa | 0 mm | 1.79 m/s, 183° | - | - |
| 1778026612 | 20° C | 47% | 1013.4 hPa | 0 mm | 1.79 m/s, 183° | - | - |
| 1778026311 | 20.56° C | 47% | 1013.4 hPa | 0 mm | 3.58 m/s, 204° | - | - |
| 1778026031 | 20.56° C | 47% | 1013.4 hPa | 0 mm | 2.68 m/s, 203° | - | - |
| 1778025710 | 20.56° C | 47% | 1013.3 hPa | 0 mm | 2.24 m/s, 182° | - | - |
| 1778025409 | 20.56° C | 47% | 1013.3 hPa | 0 mm | 2.24 m/s, 197° | - | - |
* Rain latest hour (hover to see other rain measurements)
** Current wind speed in m/s (hover to see current wind gust speed)